Вернуться в каталог

NOAA 17 DEB

АктивенSSO
NORAD 48162·DEBRIS·🇺🇸 United States

Запущен Jun 24, 2002 с Vandenberg Space Force Base

Loading…

Ближайшие Пролёты (ближайшие 24 часа)

TLE

СвежийSource: Space-Track

Эпоха: Sep 14, 2026, 09:28 UTC

1 48162U 02032C   26257.39470785  .00002771  00000-0  85183-3 0  9998
2 48162  98.7998 236.2348 0018832  43.9741 316.2942 14.42289901287768

Отслеживайте NOAA 17 DEB в реальном времени с AllMySat

Download on the App Store